Tracking 27420 objects as of 28-May-2023
HD Live streaming from Space Station
objects crossing your sky now

OPS 4682 DEB

Track OPS 4682 DEB now!
10-day predictions


NORAD ID: 38415
Int'l Code: 1965-027DU
Perigee: 1,242.3 km
Apogee: 1,284.1 km
Inclination: 90.2 °
Period: 110.6 minutes
Semi major axis: 7634 km
RCS: 0.0106 m2 (small)
Launch date: April 3, 1965
Source: United States (US)
Launch site: AIR FORCE WESTERN TEST RANGE (AFWTR)

Note: This is SATELLITE DEBRIS
Your satellite tracking list
Your tracking list is empty




NASA's NSSDC Master Catalog

Two Line Element Set (TLE):
1 38415U 65027DU  23147.79129693  .00000792  00000-0  25469-2 0  9990
2 38415  90.2467 349.3277 0027367 193.8580 166.1794 13.01540305469662
Source of the keplerian elements: AFSPC